Time,TemperatureF,DewpointF,PressureIn,WindDirection,WindDirectionDegrees,WindSpeedMPH,WindSpeedGustMPH,Humidity,HourlyPrecipIn,Conditions,Clouds,dailyrainin,SoftwareType,DateUTC
2013-03-11 00:03:00,49.0,27.0,30.24,East,84,0.0,-999.0,43,-99.99,,,-99.99,,2013-03-11 04:03:00,
2013-03-11 00:12:00,49.0,27.0,30.24,East,84,0.0,-999.0,43,-99.99,,,-99.99,,2013-03-11 04:12:00,
2013-03-11 00:22:00,49.0,29.0,30.22,ENE,74,0.0,-999.0,46,-99.99,,,-99.99,,2013-03-11 04:22:00,
2013-03-11 00:33:00,48.0,29.0,30.22,ESE,116,0.0,-999.0,47,-99.99,,,-99.99,,2013-03-11 04:33:00,
2013-03-11 00:43:00,48.0,29.0,30.22,ESE,116,0.0,-999.0,47,-99.99,,,-99.99,,2013-03-11 04:43:00,
2013-03-11 00:52:00,48.0,29.0,30.22,ESE,115,0.0,-999.0,47,-99.99,,,-99.99,,2013-03-11 04:52:00,
2013-03-11 01:03:00,47.0,29.0,30.22,ESE,113,0.0,-999.0,49,-99.99,,,-99.99,,2013-03-11 05:03:00,
2013-03-11 01:12:00,47.0,29.0,30.22,ESE,113,0.0,-999.0,49,-99.99,,,-99.99,,2013-03-11 05:12:00,
2013-03-11 01:22:00,47.0,29.0,30.22,ESE,105,0.0,-999.0,49,-99.99,,,-99.99,,2013-03-11 05:22:00,
2013-03-11 01:32:00,47.0,29.0,30.22,SE,134,0.0,-999.0,49,-99.99,,,-99.99,,2013-03-11 05:32:00,
2013-03-11 01:43:00,47.0,29.0,30.22,SE,134,0.0,-999.0,49,-99.99,,,-99.99,,2013-03-11 05:43:00,
2013-03-11 01:52:00,47.0,29.0,30.22,South,178,0.0,-999.0,49,-99.99,,,-99.99,,2013-03-11 05:52:00,
2013-03-11 02:02:00,47.0,28.0,30.21,ESE,113,0.0,-999.0,47,-99.99,,,-99.99,,2013-03-11 06:02:00,
2013-03-11 02:12:00,47.0,28.0,30.21,ESE,113,0.0,-999.0,47,-99.99,,,-99.99,,2013-03-11 06:12:00,
2013-03-11 02:22:00,46.0,28.0,30.21,ESE,114,0.0,-999.0,49,-99.99,,,-99.99,,2013-03-11 06:22:00,
2013-03-11 02:33:00,45.0,27.0,30.20,SE,137,0.0,-999.0,48,-99.99,,,-99.99,,2013-03-11 06:33:00,
2013-03-11 02:42:00,45.0,27.0,30.20,SE,137,0.0,-999.0,48,-99.99,,,-99.99,,2013-03-11 06:42:00,
2013-03-11 02:52:00,45.0,27.0,30.20,ESE,104,0.0,-999.0,49,-99.99,,,-99.99,,2013-03-11 06:52:00,
2013-03-11 03:03:00,45.0,28.0,30.19,East,83,1.0,-999.0,51,-99.99,,,-99.99,,2013-03-11 07:03:00,
2013-03-11 03:12:00,45.0,28.0,30.19,East,83,1.0,-999.0,51,-99.99,,,-99.99,,2013-03-11 07:12:00,
2013-03-11 03:22:00,45.0,31.0,30.19,SE,125,0.0,-999.0,57,-99.99,,,-99.99,,2013-03-11 07:22:00,
2013-03-11 03:32:00,45.0,32.0,30.19,East,98,1.0,-999.0,59,-99.99,,,-99.99,,2013-03-11 07:32:00,
2013-03-11 03:42:00,45.0,32.0,30.19,East,98,1.0,-999.0,59,-99.99,,,-99.99,,2013-03-11 07:42:00,
2013-03-11 03:52:00,44.0,32.0,30.18,ESE,113,1.0,-999.0,62,-99.99,,,-99.99,,2013-03-11 07:52:00,
2013-03-11 04:02:00,44.0,32.0,30.17,ESE,103,1.0,-999.0,62,-99.99,,,-99.99,,2013-03-11 08:02:00,
2013-03-11 04:12:00,44.0,32.0,30.17,ESE,103,1.0,-999.0,62,-99.99,,,-99.99,,2013-03-11 08:12:00,
2013-03-11 04:22:00,44.0,32.0,30.16,ESE,113,1.0,-999.0,62,-99.99,,,-99.99,,2013-03-11 08:22:00,
2013-03-11 04:33:00,44.0,33.0,30.16,East,99,0.0,-999.0,64,-99.99,,,-99.99,,2013-03-11 08:33:00,
2013-03-11 04:42:00,44.0,33.0,30.16,East,99,0.0,-999.0,64,-99.99,,,-99.99,,2013-03-11 08:42:00,
2013-03-11 04:52:00,43.0,32.0,30.17,ESE,103,0.0,-999.0,66,-99.99,,,-99.99,,2013-03-11 08:52:00,
2013-03-11 05:02:00,43.0,33.0,30.16,ENE,69,1.0,-999.0,68,-99.99,,,-99.99,,2013-03-11 09:02:00,
2013-03-11 05:12:00,43.0,33.0,30.16,ENE,69,1.0,-999.0,68,-99.99,,,-99.99,,2013-03-11 09:12:00,
2013-03-11 05:23:00,43.0,34.0,30.15,ESE,107,0.0,-999.0,71,-99.99,,,-99.99,,2013-03-11 09:23:00,
2013-03-11 05:32:00,43.0,36.0,30.14,East,82,1.0,-999.0,76,-99.99,,,-99.99,,2013-03-11 09:32:00,
2013-03-11 05:42:00,43.0,36.0,30.14,East,82,1.0,-999.0,76,-99.99,,,-99.99,,2013-03-11 09:42:00,
2013-03-11 05:52:00,44.0,37.0,30.14,ENE,61,0.0,-999.0,77,-99.99,,,-99.99,,2013-03-11 09:52:00,
2013-03-11 06:02:00,44.0,37.0,30.15,ESE,103,1.0,-999.0,77,-99.99,,,-99.99,,2013-03-11 10:02:00,
2013-03-11 06:12:00,44.0,37.0,30.15,ESE,103,1.0,-999.0,77,-99.99,,,-99.99,,2013-03-11 10:12:00,
2013-03-11 06:22:00,44.0,38.0,30.15,East,101,0.0,-999.0,78,-99.99,,,-99.99,,2013-03-11 10:22:00,
2013-03-11 06:32:00,44.0,38.0,30.15,ESE,119,0.0,-999.0,80,-99.99,,,-99.99,,2013-03-11 10:32:00,
2013-03-11 06:42:00,44.0,38.0,30.15,ESE,119,0.0,-999.0,80,-99.99,,,-99.99,,2013-03-11 10:42:00,
2013-03-11 06:52:00,44.0,39.0,30.14,ENE,63,0.0,-999.0,82,-99.99,,,-99.99,,2013-03-11 10:52:00,
2013-03-11 07:02:00,45.0,41.0,30.14,ESE,109,1.0,-999.0,85,-99.99,,,-99.99,,2013-03-11 11:02:00,
2013-03-11 07:12:00,45.0,41.0,30.14,ESE,109,1.0,-999.0,85,-99.99,,,-99.99,,2013-03-11 11:12:00,
2013-03-11 07:22:00,46.0,42.0,30.14,NE,40,1.0,-999.0,86,-99.99,,,-99.99,,2013-03-11 11:22:00,
2013-03-11 07:33:00,46.0,42.0,30.14,NE,50,1.0,-999.0,85,-99.99,,,-99.99,,2013-03-11 11:33:00,
2013-03-11 07:42:00,46.0,42.0,30.14,NE,50,1.0,-999.0,85,-99.99,,,-99.99,,2013-03-11 11:42:00,
2013-03-11 07:52:00,46.0,42.0,30.15,SE,137,1.0,-999.0,86,-99.99,,,-99.99,,2013-03-11 11:52:00,
2013-03-11 08:02:00,46.0,42.0,30.14,NE,47,1.0,-999.0,86,-99.99,,,-99.99,,2013-03-11 12:02:00,
2013-03-11 08:12:00,46.0,42.0,30.14,NE,47,1.0,-999.0,86,-99.99,,,-99.99,,2013-03-11 12:12:00,
2013-03-11 08:22:00,45.0,41.0,30.14,ENE,73,1.0,-999.0,86,-99.99,,,-99.99,,2013-03-11 12:22:00,
2013-03-11 08:33:00,46.0,43.0,30.14,NE,55,1.0,-999.0,88,-99.99,,,-99.99,,2013-03-11 12:33:00,
2013-03-11 08:43:00,46.0,43.0,30.14,NE,55,1.0,-999.0,88,-99.99,,,-99.99,,2013-03-11 12:43:00,
2013-03-11 08:52:00,46.0,43.0,30.14,SE,138,1.0,-999.0,88,-99.99,,,-99.99,,2013-03-11 12:52:00,
2013-03-11 09:03:00,47.0,44.0,30.14,ESE,115,1.0,-999.0,89,-99.99,,,-99.99,,2013-03-11 13:03:00,
2013-03-11 09:12:00,47.0,44.0,30.14,ESE,115,1.0,-999.0,89,-99.99,,,-99.99,,2013-03-11 13:12:00,
2013-03-11 09:22:00,48.0,45.0,30.14,East,99,1.0,-999.0,89,-99.99,,,-99.99,,2013-03-11 13:22:00,
2013-03-11 09:33:00,48.0,45.0,30.14,SE,138,2.0,-999.0,89,-99.99,,,-99.99,,2013-03-11 13:33:00,
2013-03-11 09:42:00,48.0,45.0,30.14,SE,138,2.0,-999.0,89,-99.99,,,-99.99,,2013-03-11 13:42:00,
2013-03-11 09:52:00,49.0,46.0,30.13,NE,48,1.0,-999.0,88,-99.99,,,-99.99,,2013-03-11 13:52:00,
2013-03-11 10:02:00,50.0,46.0,30.13,SE,136,1.0,-999.0,86,-99.99,,,-99.99,,2013-03-11 14:02:00,
2013-03-11 10:12:00,50.0,46.0,30.13,SE,136,1.0,-999.0,86,-99.99,,,-99.99,,2013-03-11 14:12:00,
2013-03-11 10:22:00,51.0,47.0,30.14,SSE,148,1.0,-999.0,86,-99.99,,,-99.99,,2013-03-11 14:22:00,
2013-03-11 10:33:00,52.0,47.0,30.13,South,169,1.0,-999.0,84,-99.99,,,-99.99,,2013-03-11 14:33:00,
2013-03-11 10:42:00,52.0,47.0,30.13,South,169,1.0,-999.0,84,-99.99,,,-99.99,,2013-03-11 14:42:00,
2013-03-11 10:52:00,53.0,48.0,30.12,SSE,150,0.0,-999.0,82,-99.99,,,-99.99,,2013-03-11 14:52:00,
2013-03-11 11:03:00,55.0,49.0,30.12,East,82,1.0,-999.0,79,-99.99,,,-99.99,,2013-03-11 15:03:00,
2013-03-11 11:13:00,55.0,49.0,30.12,East,82,1.0,-999.0,79,-99.99,,,-99.99,,2013-03-11 15:13:00,
2013-03-11 11:22:00,57.0,50.0,30.12,ENE,70,0.0,-999.0,78,-99.99,,,-99.99,,2013-03-11 15:22:00,
2013-03-11 11:32:00,58.0,50.0,30.12,NE,53,1.0,-999.0,76,-99.99,,,-99.99,,2013-03-11 15:32:00,
2013-03-11 11:42:00,58.0,50.0,30.12,NE,53,1.0,-999.0,76,-99.99,,,-99.99,,2013-03-11 15:42:00,
2013-03-11 11:53:00,61.0,52.0,30.11,South,176,1.0,-999.0,72,-99.99,,,-99.99,,2013-03-11 15:53:00,
2013-03-11 12:03:00,63.0,52.0,30.11,SSE,150,3.0,-999.0,67,-99.99,,,-99.99,,2013-03-11 16:03:00,
2013-03-11 12:13:00,63.0,52.0,30.11,SSE,150,3.0,-999.0,67,-99.99,,,-99.99,,2013-03-11 16:13:00,
2013-03-11 12:22:00,63.0,51.0,30.11,SSE,168,2.0,-999.0,66,-99.99,,,-99.99,,2013-03-11 16:22:00,
2013-03-11 12:32:00,64.0,52.0,30.11,SE,132,2.0,-999.0,66,-99.99,,,-99.99,,2013-03-11 16:32:00,
2013-03-11 12:43:00,64.0,52.0,30.11,SE,132,2.0,-999.0,66,-99.99,,,-99.99,,2013-03-11 16:43:00,
2013-03-11 12:52:00,64.0,52.0,30.10,ESE,117,2.0,-999.0,65,-99.99,,,-99.99,,2013-03-11 16:52:00,
2013-03-11 13:03:00,65.0,53.0,30.09,South,184,2.0,-999.0,64,-99.99,,,-99.99,,2013-03-11 17:03:00,
2013-03-11 13:17:00,65.0,53.0,30.09,South,184,2.0,-999.0,64,-99.99,,,-99.99,,2013-03-11 17:17:00,
2013-03-11 13:27:00,65.0,52.0,30.09,South,171,2.0,-999.0,62,-99.99,,,-99.99,,2013-03-11 17:27:00,
2013-03-11 13:37:00,65.0,52.0,30.09,SSE,147,3.0,-999.0,63,-99.99,,,-99.99,,2013-03-11 17:37:00,
2013-03-11 13:52:00,64.0,51.0,30.09,South,191,3.0,-999.0,63,-99.99,,,-99.99,,2013-03-11 17:52:00,
2013-03-11 14:02:00,65.0,52.0,30.07,SE,132,2.0,-999.0,63,-99.99,,,-99.99,,2013-03-11 18:02:00,
2013-03-11 14:12:00,65.0,52.0,30.07,SE,132,2.0,-999.0,63,-99.99,,,-99.99,,2013-03-11 18:12:00,
2013-03-11 14:23:00,66.0,52.0,30.06,South,175,3.0,-999.0,61,-99.99,,,-99.99,,2013-03-11 18:23:00,
2013-03-11 14:33:00,65.0,52.0,30.06,SSE,157,3.0,-999.0,63,-99.99,,,-99.99,,2013-03-11 18:33:00,
2013-03-11 14:42:00,65.0,52.0,30.06,SSE,157,3.0,-999.0,63,-99.99,,,-99.99,,2013-03-11 18:42:00,
2013-03-11 14:52:00,64.0,52.0,30.05,SSW,195,4.0,-999.0,65,-99.99,,,-99.99,,2013-03-11 18:52:00,
2013-03-11 15:02:00,65.0,53.0,30.03,SW,215,3.0,-999.0,64,-99.99,,,-99.99,,2013-03-11 19:02:00,
2013-03-11 15:13:00,65.0,53.0,30.03,SW,215,3.0,-999.0,64,-99.99,,,-99.99,,2013-03-11 19:13:00,
2013-03-11 15:23:00,67.0,53.0,30.02,ENE,67,4.0,-999.0,60,-99.99,,,-99.99,,2013-03-11 19:23:00,
2013-03-11 15:33:00,67.0,53.0,30.01,South,188,5.0,-999.0,60,-99.99,,,-99.99,,2013-03-11 19:33:00,
2013-03-11 15:43:00,67.0,53.0,30.01,South,188,5.0,-999.0,60,-99.99,,,-99.99,,2013-03-11 19:43:00,
2013-03-11 15:52:00,66.0,52.0,30.01,SSW,196,3.0,-999.0,61,-99.99,,,-99.99,,2013-03-11 19:52:00,
2013-03-11 16:02:00,66.0,53.0,30.00,SSW,213,2.0,-999.0,62,-99.99,,,-99.99,,2013-03-11 20:02:00,
2013-03-11 16:12:00,66.0,53.0,30.00,SSW,213,2.0,-999.0,62,-99.99,,,-99.99,,2013-03-11 20:12:00,
2013-03-11 16:22:00,66.0,52.0,29.98,SSE,161,3.0,-999.0,61,-99.99,,,-99.99,,2013-03-11 20:22:00,
2013-03-11 16:32:00,67.0,53.0,29.98,SSW,198,3.0,-999.0,60,-99.99,,,-99.99,,2013-03-11 20:32:00,
2013-03-11 16:43:00,67.0,53.0,29.98,SSW,198,3.0,-999.0,60,-99.99,,,-99.99,,2013-03-11 20:43:00,
2013-03-11 16:52:00,67.0,52.0,29.98,SSW,200,3.0,-999.0,59,-99.99,,,-99.99,,2013-03-11 20:52:00,
2013-03-11 17:03:00,66.0,51.0,29.97,South,186,4.0,-999.0,59,-99.99,,,-99.99,,2013-03-11 21:03:00,
2013-03-11 17:13:00,66.0,51.0,29.97,South,186,4.0,-999.0,59,-99.99,,,-99.99,,2013-03-11 21:13:00,
2013-03-11 17:22:00,66.0,52.0,29.97,South,176,2.0,-999.0,60,-99.99,,,-99.99,,2013-03-11 21:22:00,
2013-03-11 17:33:00,66.0,51.0,29.96,SW,225,2.0,-999.0,59,-99.99,,,-99.99,,2013-03-11 21:33:00,
2013-03-11 17:44:00,66.0,51.0,29.96,SW,225,2.0,-999.0,59,-99.99,,,-99.99,,2013-03-11 21:44:00,
2013-03-11 17:52:00,66.0,53.0,29.97,SSW,205,4.0,-999.0,62,-99.99,,,-99.99,,2013-03-11 21:52:00,
2013-03-11 18:03:00,65.0,52.0,29.96,South,185,2.0,-999.0,63,-99.99,,,-99.99,,2013-03-11 22:03:00,
2013-03-11 18:13:00,65.0,52.0,29.96,South,185,2.0,-999.0,63,-99.99,,,-99.99,,2013-03-11 22:13:00,
2013-03-11 18:22:00,65.0,53.0,29.97,SSW,209,3.0,-999.0,64,-99.99,,,-99.99,,2013-03-11 22:22:00,
2013-03-11 18:32:00,65.0,53.0,29.96,SW,216,4.0,-999.0,65,-99.99,,,-99.99,,2013-03-11 22:32:00,
2013-03-11 18:43:00,65.0,53.0,29.96,SW,216,4.0,-999.0,65,-99.99,,,-99.99,,2013-03-11 22:43:00,
2013-03-11 18:53:00,64.0,52.0,29.95,East,98,2.0,-999.0,66,-99.99,,,-99.99,,2013-03-11 22:53:00,
2013-03-11 19:03:00,64.0,52.0,29.94,SSW,209,2.0,-999.0,66,-99.99,,,-99.99,,2013-03-11 23:03:00,
2013-03-11 19:12:00,64.0,52.0,29.94,SSW,209,2.0,-999.0,66,-99.99,,,-99.99,,2013-03-11 23:12:00,
2013-03-11 19:22:00,64.0,53.0,29.94,NE,39,1.0,-999.0,67,-99.99,,,-99.99,,2013-03-11 23:22:00,
2013-03-11 19:32:00,63.0,52.0,29.93,ESE,123,1.0,-999.0,67,-99.99,,,-99.99,,2013-03-11 23:32:00,
2013-03-11 19:43:00,63.0,52.0,29.93,ESE,123,1.0,-999.0,67,-99.99,,,-99.99,,2013-03-11 23:43:00,
2013-03-11 20:02:00,63.0,52.0,29.94,SSE,162,3.0,-999.0,67,-99.99,,,-99.99,,2013-03-12 00:02:00,
2013-03-11 20:13:00,63.0,52.0,29.94,SSE,162,3.0,-999.0,67,-99.99,,,-99.99,,2013-03-12 00:13:00,
2013-03-11 20:23:00,63.0,53.0,29.95,East,80,5.0,-999.0,71,-99.99,,,-99.99,,2013-03-12 00:23:00,
2013-03-11 20:33:00,62.0,53.0,29.95,WSW,255,4.0,-999.0,73,-99.99,,,-99.99,,2013-03-12 00:33:00,
2013-03-11 20:43:00,62.0,53.0,29.95,WSW,255,4.0,-999.0,73,-99.99,,,-99.99,,2013-03-12 00:43:00,
2013-03-11 20:53:00,61.0,53.0,29.96,SSW,206,3.0,-999.0,75,-99.99,,,-99.99,,2013-03-12 00:53:00,
2013-03-11 21:02:00,61.0,53.0,29.95,SE,125,2.0,-999.0,76,-99.99,,,-99.99,,2013-03-12 01:02:00,
2013-03-11 21:12:00,61.0,53.0,29.95,SE,125,2.0,-999.0,76,-99.99,,,-99.99,,2013-03-12 01:12:00,
2013-03-11 21:22:00,60.0,53.0,29.95,SW,215,1.0,-999.0,77,-99.99,,,-99.99,,2013-03-12 01:22:00,
2013-03-11 21:33:00,60.0,53.0,29.95,SSW,205,1.0,-999.0,77,-99.99,,,-99.99,,2013-03-12 01:33:00,
2013-03-11 21:42:00,60.0,53.0,29.95,SSW,205,1.0,-999.0,77,-99.99,,,-99.99,,2013-03-12 01:42:00,
2013-03-11 21:52:00,60.0,53.0,29.94,SE,130,1.0,-999.0,78,-99.99,,,-99.99,,2013-03-12 01:52:00,
2013-03-11 22:02:00,60.0,53.0,29.95,SE,141,1.0,-999.0,78,-99.99,,,-99.99,,2013-03-12 02:02:00,
2013-03-11 22:13:00,60.0,53.0,29.95,SE,141,1.0,-999.0,78,-99.99,,,-99.99,,2013-03-12 02:13:00,
2013-03-11 22:22:00,60.0,53.0,29.94,ENE,72,1.0,-999.0,79,-99.99,,,-99.99,,2013-03-12 02:22:00,
2013-03-11 22:32:00,60.0,53.0,29.94,SE,144,1.0,-999.0,79,-99.99,,,-99.99,,2013-03-12 02:32:00,
2013-03-11 22:42:00,60.0,53.0,29.94,SE,144,1.0,-999.0,79,-99.99,,,-99.99,,2013-03-12 02:42:00,
2013-03-11 22:52:00,60.0,53.0,29.93,East,79,1.0,-999.0,79,-99.99,,,-99.99,,2013-03-12 02:52:00,
2013-03-11 23:02:00,60.0,54.0,29.94,ESE,119,1.0,-999.0,80,-99.99,,,-99.99,,2013-03-12 03:02:00,
2013-03-11 23:12:00,60.0,54.0,29.94,ESE,119,1.0,-999.0,80,-99.99,,,-99.99,,2013-03-12 03:12:00,
2013-03-11 23:22:00,59.0,53.0,29.94,SE,146,1.0,-999.0,80,-99.99,,,-99.99,,2013-03-12 03:22:00,
2013-03-11 23:32:00,59.0,53.0,29.93,SE,134,2.0,-999.0,81,-99.99,,,-99.99,,2013-03-12 03:32:00,
2013-03-11 23:42:00,59.0,53.0,29.93,SE,134,2.0,-999.0,81,-99.99,,,-99.99,,2013-03-12 03:42:00,
2013-03-11 23:52:00,59.0,53.0,29.92,ENE,71,2.0,-999.0,81,-99.99,,,-99.99,,2013-03-12 03:52:00,